ギブス彗星

229P/Gibbs (2025)

English version
Home page
Updated on November 27, 2024

---------------------------------------------------------------------

・ プロフィール

・ 写真集

・ 軌道要素

Epoch 2024 Oct. 17.0 TT = JDT 2460600.5
T 2025 Mar. 5.72617 TT                                  Rudenko
q   2.4404291            (2000.0)            P               Q
n   0.12683812     Peri.  224.19853     +0.89988883     -0.40344987
a   3.9231615      Node   157.88341     +0.40648651     +0.91350471
e   0.3779432      Incl.   26.09680     -0.15801521     +0.05231970
P   7.77
>From 309 observations 2001 Aug. 24-2024 Aug. 29, mean residual 1".0.

・ 光度変化

        m1 = 11.0 + 5 logΔ + 15.0 log r(t - 100)

---------------------------------------------------------------------

軌道要素はM.P.E.C. 2024-R10に掲載されたものです。
光度グラフはComet for Windowsで作成したものです。

---------------------------------------------------------------------

Copyright(C) Seiichi Yoshida (comet@aerith.net). All rights reserved.